,,PA_Meas_PMT16A,,PR_Meas_QMR101_102,,RH_Meas_QMH101,,SR_Meas_QMS101,,TA_Meas_QMH101,,GenWind,,GenWind,
time,status,PA,status,PR,status,RH,status,SR,status,TA,status,DirAvg,status,SpdAvg,
2015-05-31, 06:55:04,VALID,916.533,VALID,0,VALID,87.7684,VALID,72.7377,VALID,20.3659,VALID,156,VALID,0,
2015-05-31, 06:56:04,VALID,916.542,VALID,0,VALID,87.5702,VALID,74.8865,VALID,20.4049,VALID,170,VALID,0,
2015-05-31, 06:57:04,VALID,916.507,VALID,0,VALID,87.2424,VALID,76.2832,VALID,20.4634,VALID,153,VALID,0,
2015-05-31, 06:58:04,VALID,916.505,VALID,0,VALID,87.0594,VALID,78.6469,VALID,20.5024,VALID,154,VALID,0,
2015-05-31, 06:59:04,VALID,916.478,VALID,0,VALID,87.1814,VALID,80.5809,VALID,20.5609,VALID,153,VALID,0,
2015-05-31, 07:00:04,VALID,916.467,VALID,0,VALID,86.8612,VALID,82.9446,VALID,20.5804,VALID,150,VALID,0,
2015-05-31, 07:01:04,VALID,916.456,VALID,0,VALID,86.1522,VALID,86.4901,VALID,20.6194,VALID,143,VALID,1.00469,
2015-05-31, 07:02:04,VALID,916.468,VALID,0,VALID,85.7253,VALID,89.391,VALID,20.699,VALID,143,VALID,0.539453,
2015-05-31, 07:03:04,VALID,916.473,VALID,0,VALID,85.4432,VALID,93.3664,VALID,20.7381,VALID,141,VALID,0.919922,
2015-05-31, 07:04:04,VALID,916.478,VALID,0,VALID,85.4509,VALID,96.3747,VALID,20.795,VALID,140,VALID,0.00703125,
2015-05-31, 07:05:04,VALID,916.511,VALID,0,VALID,85.0011,VALID,99.2756,VALID,20.8535,VALID,151,VALID,0.3375,
2015-05-31, 07:06:04,VALID,916.533,VALID,0,VALID,85.0011,VALID,101.424,VALID,20.9316,VALID,128,VALID,0.0792969,
2015-05-31, 07:07:04,VALID,916.544,VALID,0,VALID,84.0863,VALID,103.251,VALID,21.0096,VALID,134,VALID,1.29102,
2015-05-31, 07:08:04,VALID,916.576,VALID,0,VALID,83.789,VALID,106.152,VALID,21.1055,VALID,104,VALID,0,
2015-05-31, 07:09:04,VALID,916.584,VALID,0,VALID,83.0495,VALID,109.697,VALID,21.2242,VALID,111,VALID,1.29531,
2015-05-31, 07:10:04,VALID,916.609,VALID,0,VALID,82.7674,VALID,111.954,VALID,21.3022,VALID,131,VALID,0.826172,
2015-05-31, 07:11:04,VALID,916.649,VALID,0,VALID,82.371,VALID,113.995,VALID,21.3201,VALID,124,VALID,1.51328,
2015-05-31, 07:12:04,VALID,916.653,VALID,0,VALID,82.0432,VALID,116.251,VALID,21.3786,VALID,132,VALID,0.910156,
2015-05-31, 07:13:04,VALID,916.637,VALID,0,VALID,82.2185,VALID,119.904,VALID,21.3998,VALID,134,VALID,1.50391,
2015-05-31, 07:14:04,VALID,916.679,VALID,0,VALID,82.8208,VALID,123.88,VALID,21.3803,VALID,126,VALID,0.23125,
2015-05-31, 07:15:04,VALID,916.693,VALID,0,VALID,82.9046,VALID,127.318,VALID,21.3608,VALID,118,VALID,0.585938,
2015-05-31, 07:16:04,VALID,916.722,VALID,0,VALID,83.0571,VALID,129.681,VALID,21.3591,VALID,131,VALID,0.813281,
2015-05-31, 07:17:04,VALID,916.759,VALID,0,VALID,83.2477,VALID,130.756,VALID,21.3981,VALID,136,VALID,0.0996094,
2015-05-31, 07:18:04,VALID,916.781,VALID,0,VALID,83.6441,VALID,133.012,VALID,21.4567,VALID,105,VALID,0.00585938,
2015-05-31, 07:19:04,VALID,916.824,VALID,0,VALID,82.8513,VALID,135.161,VALID,21.5347,VALID,103,VALID,0.0171875,
2015-05-31, 07:20:04,VALID,916.84,VALID,0,VALID,82.5387,VALID,137.525,VALID,21.6339,VALID,96,VALID,0.474219,
2015-05-31, 07:21:04,VALID,916.855,VALID,0,VALID,81.5248,VALID,142.36,VALID,21.7526,VALID,86,VALID,0.248047,
2015-05-31, 07:22:04,VALID,916.894,VALID,0,VALID,81.5934,VALID,145.368,VALID,21.8095,VALID,83,VALID,0.564062,
2015-05-31, 07:23:04,VALID,916.935,VALID,0,VALID,79.901,VALID,147.732,VALID,21.8876,VALID,87,VALID,0.987891,
2015-05-31, 07:24:04,VALID,916.925,VALID,0,VALID,80.145,VALID,153.211,VALID,21.9461,VALID,89,VALID,0.000390625,
2015-05-31, 07:25:04,VALID,916.937,VALID,0,VALID,80.4347,VALID,156.005,VALID,22.042,VALID,107,VALID,0,
2015-05-31, 07:26:04,VALID,916.923,VALID,0,VALID,79.2988,VALID,156.649,VALID,22.1201,VALID,137,VALID,0.0121094,
2015-05-31, 07:27:04,VALID,916.977,VALID,0,VALID,79.0853,VALID,159.55,VALID,22.2371,VALID,108,VALID,0.0195313,
2015-05-31, 07:28:04,VALID,916.962,VALID,0,VALID,78.3001,VALID,162.021,VALID,22.3347,VALID,115,VALID,0.480859,
2015-05-31, 07:29:04,VALID,916.974,VALID,0,VALID,77.9113,VALID,164.17,VALID,22.4128,VALID,122,VALID,0,
2015-05-31, 07:30:04,VALID,916.979,VALID,0,VALID,77.21,VALID,166.319,VALID,22.4518,VALID,116,VALID,0,
2015-05-31, 07:31:04,VALID,916.972,VALID,0,VALID,75.7615,VALID,169.542,VALID,22.4696,VALID,120,VALID,1.18125,
2015-05-31, 07:32:04,VALID,917.025,VALID,0,VALID,75.3498,VALID,173.41,VALID,22.5281,VALID,118,VALID,1.17578,
2015-05-31, 07:33:04,VALID,917.074,VALID,0,VALID,77.1261,VALID,175.881,VALID,22.5672,VALID,95,VALID,0.715234,
2015-05-31, 07:34:04,VALID,917.067,VALID,0,VALID,75.3575,VALID,179.534,VALID,22.5672,VALID,114,VALID,1.95703,
2015-05-31, 07:35:04,VALID,917.097,VALID,0,VALID,76.3485,VALID,180.931,VALID,22.5672,VALID,113,VALID,1.52578,
2015-05-31, 07:36:04,VALID,917.138,VALID,0,VALID,75.4718,VALID,183.187,VALID,22.6062,VALID,112,VALID,1.27773,
2015-05-31, 07:37:04,VALID,917.173,VALID,0,VALID,76.0436,VALID,189.096,VALID,22.6257,VALID,111,VALID,0.0804688,
2015-05-31, 07:38:04,VALID,917.145,VALID,0,VALID,72.8112,VALID,189.956,VALID,22.6843,VALID,96,VALID,1.44727,
2015-05-31, 07:39:04,VALID,917.224,VALID,0,VALID,75.67,VALID,187.592,VALID,22.7233,VALID,93,VALID,0.627734,
2015-05-31, 07:40:04,VALID,917.243,VALID,0,VALID,75.8911,VALID,189.096,VALID,22.7641,VALID,80,VALID,0.990234,
2015-05-31, 07:41:04,VALID,917.272,VALID,0,VALID,73.5888,VALID,194.039,VALID,22.7818,VALID,97,VALID,0.625,
2015-05-31, 07:42:04,VALID,917.308,VALID,0,VALID,74.8543,VALID,192.535,VALID,22.8616,VALID,119,VALID,0.226563,
2015-05-31, 07:43:04,VALID,917.311,VALID,0,VALID,72.6816,VALID,194.576,VALID,22.8812,VALID,122,VALID,1.26094,
2015-05-31, 07:44:04,VALID,917.308,VALID,0,VALID,72.0641,VALID,197.047,VALID,22.9007,VALID,118,VALID,0.885156,
2015-05-31, 07:45:04,VALID,917.343,VALID,0,VALID,72.2395,VALID,200.593,VALID,22.8989,VALID,117,VALID,0.53125,
2015-05-31, 07:46:04,VALID,917.386,VALID,0,VALID,71.2789,VALID,204.675,VALID,22.8989,VALID,134,VALID,1.88008,
2015-05-31, 07:47:04,VALID,917.404,VALID,0,VALID,73.7489,VALID,210.907,VALID,22.977,VALID,118,VALID,0,
2015-05-31, 07:48:04,VALID,917.46,VALID,0,VALID,72.796,VALID,216.601,VALID,23.0763,VALID,98,VALID,0.00195313,
2015-05-31, 07:49:04,VALID,917.492,VALID,0,VALID,72.7274,VALID,219.073,VALID,23.1331,VALID,83,VALID,0.155859,
2015-05-31, 07:50:04,VALID,917.521,VALID,0,VALID,72.7808,VALID,219.61,VALID,23.252,VALID,87,VALID,0,
2015-05-31, 07:51:04,VALID,917.557,VALID,0,VALID,72.9637,VALID,220.792,VALID,23.2698,VALID,114,VALID,0,
2015-05-31, 07:52:04,VALID,917.545,VALID,0,VALID,71.1951,VALID,224.982,VALID,23.3283,VALID,114,VALID,0,
2015-05-31, 07:53:04,VALID,917.578,VALID,0,VALID,67.3834,VALID,231.321,VALID,23.3478,VALID,115,VALID,0,
2015-05-31, 07:54:04,VALID,917.588,VALID,0,VALID,70.7148,VALID,234.651,VALID,23.4064,VALID,115,VALID,0,
2015-05-31, 07:55:04,VALID,917.544,VALID,0,VALID,71.8507,VALID,237.66,VALID,23.465,VALID,129,VALID,0,
2015-05-31, 07:56:04,VALID,917.551,VALID,0,VALID,69.5408,VALID,240.668,VALID,23.504,VALID,121,VALID,0,
2015-05-31, 07:57:04,VALID,917.531,VALID,0,VALID,70.5776,VALID,243.784,VALID,23.504,VALID,140,VALID,0.00507812,
2015-05-31, 07:58:04,VALID,917.523,VALID,0,VALID,70.5623,VALID,249.586,VALID,23.4454,VALID,139,VALID,0.610937,
2015-05-31, 07:59:04,VALID,917.568,VALID,0,VALID,70.7148,VALID,252.272,VALID,23.3869,VALID,96,VALID,1.675,
2015-05-31, 08:00:04,VALID,917.548,VALID,0,VALID,71.1189,VALID,253.883,VALID,23.3088,VALID,127,VALID,0.801953,
2015-05-31, 08:01:04,VALID,917.539,VALID,0,VALID,71.9346,VALID,258.718,VALID,23.2698,VALID,104,VALID,1.38867,
2015-05-31, 08:02:04,VALID,917.526,VALID,0,VALID,69.7543,VALID,263.983,VALID,23.2307,VALID,117,VALID,2.42891,
2015-05-31, 08:03:04,VALID,917.568,VALID,0,VALID,70.6919,VALID,266.024,VALID,23.1704,VALID,133,VALID,2.27695,
2015-05-31, 08:04:04,VALID,917.562,VALID,0,VALID,71.0579,VALID,268.925,VALID,23.1331,VALID,126,VALID,2.02422,
2015-05-31, 08:05:04,VALID,917.586,VALID,0,VALID,70.2269,VALID,273.975,VALID,23.0924,VALID,115,VALID,2.01797,
2015-05-31, 08:06:04,VALID,917.605,VALID,0,VALID,71.8507,VALID,277.735,VALID,23.0728,VALID,94,VALID,2.40977,
2015-05-31, 08:07:04,VALID,917.6,VALID,0,VALID,73.322,VALID,281.926,VALID,23.1119,VALID,92,VALID,0.707031,
2015-05-31, 08:08:04,VALID,917.607,VALID,0,VALID,72.0794,VALID,286.438,VALID,23.1509,VALID,128,VALID,3.36523,
2015-05-31, 08:09:04,VALID,917.644,VALID,0,VALID,70.4556,VALID,291.273,VALID,23.1509,VALID,120,VALID,3.32383,
2015-05-31, 08:10:04,VALID,917.638,VALID,0,VALID,71.5534,VALID,294.281,VALID,23.1935,VALID,81,VALID,0.965234,
2015-05-31, 08:11:04,VALID,917.662,VALID,0,VALID,71.2484,VALID,298.794,VALID,23.2112,VALID,117,VALID,1.89063,
2015-05-31, 08:12:04,VALID,917.685,VALID,0,VALID,71.6601,VALID,302.769,VALID,23.2893,VALID,82,VALID,0.598828,
2015-05-31, 08:13:04,VALID,917.692,VALID,0,VALID,71.0731,VALID,307.282,VALID,23.4472,VALID,146,VALID,0.10625,
2015-05-31, 08:14:04,VALID,917.671,VALID,0,VALID,70.9283,VALID,311.687,VALID,23.504,VALID,144,VALID,1.38086,
2015-05-31, 08:15:04,VALID,917.66,VALID,0,VALID,71.1875,VALID,313.406,VALID,23.5235,VALID,119,VALID,1.41992,
2015-05-31, 08:16:04,VALID,917.665,VALID,0,VALID,69.7161,VALID,316.844,VALID,23.5235,VALID,135,VALID,1.84922,
2015-05-31, 08:17:04,VALID,917.675,VALID,0,VALID,70.7224,VALID,317.918,VALID,23.6016,VALID,147,VALID,0.645703,
2015-05-31, 08:18:04,VALID,917.709,VALID,0,VALID,70.5395,VALID,320.927,VALID,23.7382,VALID,111,VALID,0,
2015-05-31, 08:19:04,VALID,917.683,VALID,0,VALID,70.0363,VALID,323.076,VALID,23.9139,VALID,111,VALID,0.510156,
2015-05-31, 08:20:04,VALID,917.698,VALID,0,VALID,70.6386,VALID,328.018,VALID,23.9335,VALID,123,VALID,0.534766,
2015-05-31, 08:21:04,VALID,917.704,VALID,0,VALID,68.7861,VALID,330.059,VALID,23.9725,VALID,106,VALID,0.0425781,
2015-05-31, 08:22:04,VALID,917.717,VALID,0,VALID,68.8776,VALID,331.993,VALID,23.953,VALID,98,VALID,1.63867,
2015-05-31, 08:23:04,VALID,917.768,VALID,0,VALID,69.2359,VALID,333.927,VALID,23.9335,VALID,125,VALID,1.59336,
2015-05-31, 08:24:04,VALID,917.769,VALID,0,VALID,70.6462,VALID,335.861,VALID,23.9725,VALID,99,VALID,0.192578,
2015-05-31, 08:25:04,VALID,917.798,VALID,0,VALID,70.852,VALID,339.621,VALID,24.0506,VALID,101,VALID,0.504687,
2015-05-31, 08:26:04,VALID,917.808,VALID,0,VALID,69.1444,VALID,343.812,VALID,24.0311,VALID,98,VALID,1.80781,
2015-05-31, 08:27:04,VALID,917.808,VALID,0,VALID,67.1852,VALID,347.142,VALID,23.992,VALID,77,VALID,1.69844,
2015-05-31, 08:28:04,VALID,917.811,VALID,0,VALID,69.5484,VALID,347.68,VALID,23.992,VALID,80,VALID,1.35391,
2015-05-31, 08:29:04,VALID,917.777,VALID,0,VALID,67.8865,VALID,349.399,VALID,24.0115,VALID,105,VALID,0.985547,
2015-05-31, 08:30:04,VALID,917.812,VALID,0,VALID,69.0072,VALID,353.374,VALID,23.9902,VALID,113,VALID,1.00898,
2015-05-31, 08:31:04,VALID,917.824,VALID,0,VALID,69.6018,VALID,357.457,VALID,24.0097,VALID,88,VALID,0.0691406,
2015-05-31, 08:32:04,VALID,917.828,VALID,0,VALID,67.7341,VALID,361.754,VALID,24.0506,VALID,98,VALID,1.97617,
2015-05-31, 08:33:04,VALID,917.836,VALID,0,VALID,66.0035,VALID,367.341,VALID,24.0506,VALID,112,VALID,2.32109,
2015-05-31, 08:34:04,VALID,917.813,VALID,0,VALID,65.2336,VALID,369.92,VALID,24.0311,VALID,132,VALID,0.512109,
2015-05-31, 08:35:04,VALID,917.816,VALID,0,VALID,68.6031,VALID,371.317,VALID,24.1092,VALID,88,VALID,1.05859,
2015-05-31, 08:36:04,VALID,917.779,VALID,0,VALID,66.5677,VALID,373.573,VALID,24.1464,VALID,51,VALID,1.55273,
2015-05-31, 08:37:04,VALID,917.792,VALID,0,VALID,67.2004,VALID,374.218,VALID,24.2049,VALID,110,VALID,0.587109,
2015-05-31, 08:38:04,VALID,917.774,VALID,0,VALID,67.4825,VALID,377.226,VALID,24.2245,VALID,104,VALID,1.24492,
2015-05-31, 08:39:04,VALID,917.761,VALID,0,VALID,66.2246,VALID,379.912,VALID,24.283,VALID,109,VALID,0.928125,
2015-05-31, 08:40:04,VALID,917.785,VALID,0,VALID,65.5919,VALID,382.061,VALID,24.3239,VALID,95,VALID,1.25156,
2015-05-31, 08:41:04,VALID,917.779,VALID,0,VALID,67.3757,VALID,388.615,VALID,24.3026,VALID,120,VALID,1.7332,
2015-05-31, 08:42:04,VALID,917.765,VALID,0,VALID,68.8013,VALID,393.02,VALID,24.3611,VALID,70,VALID,1.98242,
2015-05-31, 08:43:04,VALID,917.745,VALID,0,VALID,67.7264,VALID,397.532,VALID,24.4392,VALID,148,VALID,0.141016,
2015-05-31, 08:44:04,VALID,917.751,VALID,0,VALID,64.6008,VALID,401.185,VALID,24.4587,VALID,126,VALID,1.61758,
2015-05-31, 08:45:04,VALID,917.693,VALID,0,VALID,67.5282,VALID,405.375,VALID,24.4587,VALID,121,VALID,0.858203,
2015-05-31, 08:46:04,VALID,917.699,VALID,0,VALID,68.7861,VALID,404.409,VALID,24.5173,VALID,80,VALID,1.08633,
2015-05-31, 08:47:04,VALID,917.705,VALID,0,VALID,67.3376,VALID,405.698,VALID,24.5368,VALID,136,VALID,0.244531,
2015-05-31, 08:48:04,VALID,917.681,VALID,0,VALID,67.0403,VALID,409.673,VALID,24.5173,VALID,167,VALID,0.610156,
2015-05-31, 08:49:04,VALID,917.682,VALID,0,VALID,66.9336,VALID,414.401,VALID,24.5759,VALID,116,VALID,0.354297,
2015-05-31, 08:50:04,VALID,917.687,VALID,0,VALID,66.4228,VALID,416.764,VALID,24.5759,VALID,130,VALID,1.13945,
2015-05-31, 08:51:04,VALID,917.711,VALID,0,VALID,67.8865,VALID,421.169,VALID,24.6131,VALID,93,VALID,0.382031,
2015-05-31, 08:52:04,VALID,917.714,VALID,0,VALID,67.795,VALID,423.748,VALID,24.7321,VALID,85,VALID,1.3293,
2015-05-31, 08:53:04,VALID,917.725,VALID,0,VALID,65.104,VALID,429.013,VALID,24.7516,VALID,116,VALID,1.38164,
2015-05-31, 08:54:04,VALID,917.763,VALID,0,VALID,66.156,VALID,433.525,VALID,24.7535,VALID,123,VALID,0.611719,
2015-05-31, 08:55:04,VALID,917.75,VALID,0,VALID,68.7403,VALID,437.071,VALID,24.8278,VALID,123,VALID,1.02852,
2015-05-31, 08:56:04,VALID,917.748,VALID,0,VALID,65.7825,VALID,440.401,VALID,24.8864,VALID,127,VALID,0.903125,
2015-05-31, 08:57:04,VALID,917.783,VALID,0,VALID,65.4013,VALID,443.087,VALID,24.9255,VALID,104,VALID,0.395312,
2015-05-31, 08:58:04,VALID,917.768,VALID,0,VALID,63.7089,VALID,445.021,VALID,24.9645,VALID,98,VALID,2.12695,
2015-05-31, 08:59:04,VALID,917.733,VALID,0,VALID,65.3784,VALID,447.17,VALID,24.9255,VALID,88,VALID,1.84687,
2015-05-31, 09:00:04,VALID,917.758,VALID,0,VALID,65.7443,VALID,450.931,VALID,24.9255,VALID,144,VALID,0.25625,
2015-05-31, 09:01:04,VALID,917.745,VALID,0,VALID,65.5538,VALID,456.732,VALID,25.1207,VALID,100,VALID,1.22539,
2015-05-31, 09:02:04,VALID,917.712,VALID,0,VALID,64.9744,VALID,457.484,VALID,25.1793,VALID,76,VALID,1.1875,
2015-05-31, 09:03:04,VALID,917.746,VALID,0,VALID,64.3721,VALID,462.534,VALID,25.1031,VALID,106,VALID,1.61523,
2015-05-31, 09:04:04,VALID,917.727,VALID,0,VALID,63.7013,VALID,463.286,VALID,25.0836,VALID,101,VALID,0.141797,
2015-05-31, 09:05:04,VALID,917.744,VALID,0,VALID,64.4941,VALID,465.972,VALID,25.0621,VALID,124,VALID,0.0597656,
2015-05-31, 09:06:04,VALID,917.757,VALID,0,VALID,66.6973,VALID,467.262,VALID,25.2984,VALID,72,VALID,0,
2015-05-31, 09:07:04,VALID,917.812,VALID,0,VALID,61.4447,VALID,470.915,VALID,25.4741,VALID,118,VALID,1.32344,
2015-05-31, 09:08:04,VALID,917.817,VALID,0,VALID,62.3824,VALID,472.204,VALID,25.3765,VALID,137,VALID,0.0398437,
2015-05-31, 09:09:04,VALID,917.854,VALID,0,VALID,61.5133,VALID,476.072,VALID,25.357,VALID,121,VALID,0.722656,
2015-05-31, 09:10:04,VALID,917.906,VALID,0,VALID,60.5147,VALID,478.435,VALID,25.2788,VALID,140,VALID,0.366406,
2015-05-31, 09:11:04,VALID,917.885,VALID,0,VALID,62.0775,VALID,481.874,VALID,25.3374,VALID,140,VALID,0.822656,
2015-05-31, 09:12:04,VALID,917.918,VALID,0,VALID,61.2313,VALID,484.56,VALID,25.3746,VALID,154,VALID,0.115234,
2015-05-31, 09:13:04,VALID,917.938,VALID,0,VALID,60.5985,VALID,486.494,VALID,25.3746,VALID,120,VALID,1.67266,
2015-05-31, 09:14:04,VALID,917.907,VALID,0,VALID,62.8017,VALID,489.394,VALID,25.2984,VALID,124,VALID,1.99141,
2015-05-31, 09:15:04,VALID,917.915,VALID,0,VALID,61.6811,VALID,490.039,VALID,25.1988,VALID,76,VALID,0.475,
2015-05-31, 09:16:04,VALID,917.916,VALID,0,VALID,63.4192,VALID,492.08,VALID,25.2984,VALID,69,VALID,1.2625,
2015-05-31, 09:17:04,VALID,917.911,VALID,0,VALID,64.3264,VALID,494.981,VALID,25.4312,VALID,92,VALID,0,
2015-05-31, 09:18:04,VALID,917.916,VALID,0,VALID,62.7026,VALID,494.874,VALID,25.648,VALID,130,VALID,0,
2015-05-31, 09:19:04,VALID,917.879,VALID,0,VALID,64.5017,VALID,497.775,VALID,25.8433,VALID,82,VALID,0.0652344,
2015-05-31, 09:20:04,VALID,917.849,VALID,0,VALID,65.4089,VALID,503.469,VALID,25.98,VALID,15,VALID,1.65508,
2015-05-31, 09:21:04,VALID,917.815,VALID,0,VALID,66.7735,VALID,506.263,VALID,26.019,VALID,47,VALID,1.07461,
2015-05-31, 09:22:04,VALID,917.86,VALID,0,VALID,66.6287,VALID,507.015,VALID,25.9214,VALID,27,VALID,1.41289,
2015-05-31, 09:23:04,VALID,917.837,VALID,0,VALID,67.9932,VALID,508.841,VALID,25.8042,VALID,348,VALID,0.473047,
2015-05-31, 09:24:04,VALID,917.841,VALID,0,VALID,67.6426,VALID,511.635,VALID,25.8042,VALID,343,VALID,0.00351562,
2015-05-31, 09:25:04,VALID,917.821,VALID,0,VALID,67.0556,VALID,515.61,VALID,25.9019,VALID,32,VALID,0,
2015-05-31, 09:26:04,VALID,917.834,VALID,0,VALID,66.6515,VALID,516.577,VALID,26.0386,VALID,338,VALID,0.861328,
2015-05-31, 09:27:04,VALID,917.842,VALID,0,VALID,64.4789,VALID,517.759,VALID,26.0171,VALID,335,VALID,0,
2015-05-31, 09:28:04,VALID,917.82,VALID,0,VALID,66.0188,VALID,521.412,VALID,25.978,VALID,20,VALID,0.00351562,
2015-05-31, 09:29:04,VALID,917.816,VALID,0,VALID,64.4331,VALID,523.023,VALID,26.0776,VALID,22,VALID,0.0117188,
2015-05-31, 09:30:04,VALID,917.793,VALID,0,VALID,62.9161,VALID,527.214,VALID,26.1362,VALID,56,VALID,0,
2015-05-31, 09:31:04,VALID,917.787,VALID,0,VALID,62.977,VALID,527.214,VALID,25.9975,VALID,56,VALID,0.487891,
2015-05-31, 09:32:04,VALID,917.766,VALID,0,VALID,61.9174,VALID,529.04,VALID,25.8237,VALID,69,VALID,1.34766,
2015-05-31, 09:33:04,VALID,917.779,VALID,0,VALID,62.3672,VALID,532.586,VALID,25.7261,VALID,71,VALID,0,
2015-05-31, 09:34:04,VALID,917.763,VALID,0,VALID,61.8945,VALID,537.206,VALID,25.7632,VALID,71,VALID,0,
2015-05-31, 09:35:04,VALID,917.779,VALID,0,VALID,61.7573,VALID,543.975,VALID,25.9604,VALID,71,VALID,0,
2015-05-31, 09:36:04,VALID,917.803,VALID,0,VALID,62.6645,VALID,544.512,VALID,26.2144,VALID,103,VALID,0,
2015-05-31, 09:37:04,VALID,917.832,VALID,0,VALID,62.2223,VALID,550.636,VALID,26.3296,VALID,133,VALID,0,
2015-05-31, 09:38:04,VALID,917.827,VALID,0,VALID,60.9873,VALID,553.752,VALID,26.566,VALID,133,VALID,0,
2015-05-31, 09:39:04,VALID,917.844,VALID,0,VALID,61.521,VALID,556.975,VALID,26.7593,VALID,133,VALID,0,
2015-05-31, 09:40:04,VALID,917.849,VALID,0,VALID,61.6124,VALID,558.587,VALID,27.0153,VALID,17,VALID,1.19375,
2015-05-31, 09:41:04,VALID,917.872,VALID,0,VALID,59.6227,VALID,557.942,VALID,27.2107,VALID,12,VALID,0,
2015-05-31, 09:42:04,VALID,917.856,VALID,0,VALID,59.0891,VALID,564.173,VALID,27.3279,VALID,20,VALID,0,
2015-05-31, 09:43:04,VALID,917.865,VALID,0,VALID,58.1285,VALID,566.107,VALID,27.5233,VALID,20,VALID,0,
2015-05-31, 09:44:04,VALID,917.849,VALID,0,VALID,58.2581,VALID,571.157,VALID,27.4842,VALID,12,VALID,0,
2015-05-31, 09:45:04,VALID,917.864,VALID,0,VALID,58.6927,VALID,568.793,VALID,27.3865,VALID,12,VALID,0,
2015-05-31, 09:46:04,VALID,917.844,VALID,0,VALID,57.4424,VALID,574.273,VALID,27.3865,VALID,12,VALID,0,
2015-05-31, 09:47:04,VALID,917.875,VALID,0,VALID,59.3559,VALID,577.711,VALID,27.4668,VALID,12,VALID,0,
2015-05-31, 09:48:04,VALID,917.859,VALID,0,VALID,56.1312,VALID,581.257,VALID,27.5428,VALID,12,VALID,0,
2015-05-31, 09:49:04,VALID,917.85,VALID,0,VALID,55.3994,VALID,582.009,VALID,27.4451,VALID,273,VALID,0,
2015-05-31, 09:50:04,VALID,917.836,VALID,0,VALID,54.8352,VALID,585.017,VALID,27.2693,VALID,274,VALID,0,
2015-05-31, 09:51:04,VALID,917.854,VALID,0,VALID,55.1402,VALID,585.662,VALID,27.0328,VALID,277,VALID,0,
2015-05-31, 09:52:04,VALID,917.857,VALID,0,VALID,55.1935,VALID,583.835,VALID,26.859,VALID,274,VALID,0,
2015-05-31, 09:53:04,VALID,917.842,VALID,0,VALID,56.703,VALID,589.315,VALID,26.7984,VALID,318,VALID,0,
2015-05-31, 09:54:04,VALID,917.832,VALID,0,VALID,57.3815,VALID,595.439,VALID,26.8765,VALID,318,VALID,0,
2015-05-31, 09:55:04,VALID,917.865,VALID,0,VALID,57.7702,VALID,597.05,VALID,27.0328,VALID,318,VALID,0.0980469,
2015-05-31, 09:56:04,VALID,917.879,VALID,0,VALID,56.4895,VALID,596.191,VALID,27.2672,VALID,318,VALID,0,
2015-05-31, 09:57:04,VALID,917.84,VALID,0,VALID,57.1756,VALID,597.588,VALID,27.3084,VALID,318,VALID,0,
2015-05-31, 09:58:04,VALID,917.89,VALID,0,VALID,56.924,VALID,597.91,VALID,27.4431,VALID,318,VALID,0,
2015-05-31, 09:59:04,VALID,917.906,VALID,0,VALID,57.8465,VALID,601.885,VALID,27.5603,VALID,318,VALID,0,
2015-05-31, 10:00:04,VALID,917.944,VALID,0,VALID,58.5326,VALID,604.786,VALID,27.5038,VALID,13,VALID,1.14414,
2015-05-31, 10:01:04,VALID,917.93,VALID,0,VALID,60.4461,VALID,605.001,VALID,27.4842,VALID,18,VALID,0.552344,
2015-05-31, 10:02:04,VALID,917.942,VALID,0,VALID,57.2671,VALID,602.637,VALID,27.4626,VALID,1,VALID,0.209766,
2015-05-31, 10:03:04,VALID,917.955,VALID,0,VALID,60.2097,VALID,607.472,VALID,27.3649,VALID,360,VALID,0.657422,
2015-05-31, 10:04:04,VALID,917.984,VALID,0,VALID,59.6685,VALID,608.224,VALID,27.2868,VALID,50,VALID,0.616797,
2015-05-31, 10:05:04,VALID,917.941,VALID,0,VALID,59.7218,VALID,610.373,VALID,27.1305,VALID,41,VALID,0.00273437,
2015-05-31, 10:06:04,VALID,917.977,VALID,0,VALID,59.5084,VALID,615.53,VALID,27.0914,VALID,15,VALID,0,
2015-05-31, 10:07:04,VALID,917.968,VALID,0,VALID,57.29,VALID,612.522,VALID,27.1675,VALID,45,VALID,0,
2015-05-31, 10:08:04,VALID,918.002,VALID,0,VALID,57.7474,VALID,615.745,VALID,27.3454,VALID,52,VALID,0,
2015-05-31, 10:09:04,VALID,918.006,VALID,0,VALID,56.0016,VALID,623.051,VALID,27.3844,VALID,52,VALID,0,
2015-05-31, 10:10:04,VALID,918.029,VALID,0,VALID,54.6751,VALID,627.886,VALID,27.4431,VALID,120,VALID,0,
2015-05-31, 10:11:04,VALID,918.062,VALID,0,VALID,56.1617,VALID,622.299,VALID,27.5408,VALID,139,VALID,0,
2015-05-31, 10:12:04,VALID,918.035,VALID,0,VALID,54.5455,VALID,621.869,VALID,27.5798,VALID,138,VALID,0.941406,
2015-05-31, 10:13:04,VALID,918.07,VALID,0,VALID,57.7626,VALID,625.63,VALID,27.4821,VALID,139,VALID,0,
2015-05-31, 10:14:04,VALID,918.044,VALID,0,VALID,55.6586,VALID,634.762,VALID,27.5603,VALID,186,VALID,0.0539063,
2015-05-31, 10:15:04,VALID,918.042,VALID,0,VALID,56.1465,VALID,629.283,VALID,27.5994,VALID,187,VALID,0,
2015-05-31, 10:16:04,VALID,918.051,VALID,0,VALID,55.6281,VALID,623.803,VALID,27.6364,VALID,187,VALID,0,
2015-05-31, 10:17:04,VALID,918.036,VALID,0,VALID,57.4577,VALID,625.2,VALID,27.658,VALID,187,VALID,0,
2015-05-31, 10:18:04,VALID,918.026,VALID,0,VALID,58.3115,VALID,629.927,VALID,27.6754,VALID,182,VALID,0,
2015-05-31, 10:19:04,VALID,918.03,VALID,0,VALID,56.2532,VALID,631.432,VALID,27.8143,VALID,187,VALID,0,
2015-05-31, 10:20:04,VALID,918.03,VALID,0,VALID,54.4464,VALID,639.597,VALID,27.8729,VALID,184,VALID,0.669922,
2015-05-31, 10:21:04,VALID,918.05,VALID,0,VALID,55.2469,VALID,642.928,VALID,27.7166,VALID,170,VALID,0.0417969,
2015-05-31, 10:22:04,VALID,918.036,VALID,0,VALID,55.0334,VALID,643.573,VALID,27.734,VALID,181,VALID,0,
2015-05-31, 10:23:04,VALID,918.031,VALID,0,VALID,54.9725,VALID,646.473,VALID,27.8122,VALID,181,VALID,0,
2015-05-31, 10:24:04,VALID,918.049,VALID,0,VALID,57.1375,VALID,647.655,VALID,27.8513,VALID,194,VALID,0,
2015-05-31, 10:25:04,VALID,918.048,VALID,0,VALID,56.7106,VALID,649.911,VALID,27.949,VALID,208,VALID,0,
2015-05-31, 10:26:04,VALID,918.055,VALID,0,VALID,54.1263,VALID,646.688,VALID,28.0271,VALID,197,VALID,0.114844,
2015-05-31, 10:27:04,VALID,918.053,VALID,0,VALID,53.3563,VALID,648.515,VALID,27.6559,VALID,141,VALID,0.271484,
2015-05-31, 10:28:04,VALID,918.014,VALID,0,VALID,53.3334,VALID,647.87,VALID,27.5387,VALID,141,VALID,0,
2015-05-31, 10:29:04,VALID,918.005,VALID,0,VALID,55.0563,VALID,653.242,VALID,27.7166,VALID,140,VALID,0,
2015-05-31, 10:30:04,VALID,917.994,VALID,0,VALID,54.1491,VALID,656.036,VALID,27.6559,VALID,141,VALID,0.0332031,
2015-05-31, 10:31:04,VALID,917.952,VALID,0,VALID,54.3016,VALID,661.73,VALID,27.7145,VALID,148,VALID,0,
2015-05-31, 10:32:04,VALID,917.953,VALID,0,VALID,55.2926,VALID,657.11,VALID,27.8513,VALID,149,VALID,0.00351562,